Date String (YYYY-MM-DD hh:mm:ss) UTC,Instrument flags,Ambient pressure (hPa),Sample flow (lpm),Bypass flow (lpm),Sample temperature (°C),Ambient temperature (°C),ASC tube jacket temperature (°C),LED temperature (°C),Box temperature (°C),Sample RH (%),Span deviation,Mass concentration (μg/m³),Mass concentration (μg/m³),Mass concentration (μg/m³)
DateTimeUTC,F1_M11,P_M11,Q1_M11,Q2_M11,T1_M11,T2_M11,T3_M11,T4_M11,T5_M11,U1_M11,ZSPAN_M11,X0_M11,X2_M11,X1_M11
2022-08-31 14:00:00,,0831.8,4.98,0.00,30.2,29.1,00.0,38.9,32.1,18.4,0000.0,0016.59,0006.52,0005.35
2022-08-31 14:01:00,,0831.7,5.01,0.00,30.2,29.2,00.0,38.9,32.1,18.8,0000.0,0016.11,0006.38,0005.28
2022-08-31 14:02:00,,0831.7,5.01,0.00,30.2,29.2,00.0,38.9,32.1,18.4,0000.0,0016.21,0006.29,0005.24
2022-08-31 14:03:00,,0831.7,5.01,0.00,30.3,29.2,00.0,39.0,32.1,19.0,0000.0,0015.58,0006.18,0005.19
2022-08-31 14:04:00,,0831.7,5.00,0.00,30.3,28.9,00.0,39.0,32.1,19.3,0000.0,0014.57,0006.07,0005.15
2022-08-31 14:05:00,,0831.7,4.98,0.00,30.3,27.6,00.0,38.9,32.0,18.3,0000.0,0014.14,0005.96,0005.10
2022-08-31 14:06:00,,0831.7,5.02,0.00,30.2,26.9,00.0,38.9,31.9,18.4,0000.0,0014.26,0005.93,0005.05
2022-08-31 14:07:00,,0831.7,4.99,0.00,30.2,27.0,00.0,38.9,31.9,17.4,0000.0,0014.24,0005.85,0004.98
2022-08-31 14:08:00,,0831.7,5.00,0.00,30.1,27.3,00.0,38.8,31.8,17.4,0000.0,0013.45,0005.77,0004.91
2022-08-31 14:09:00,,0831.7,5.00,0.00,30.0,27.6,00.0,38.8,31.7,17.7,0000.0,0016.17,0005.94,0004.87
2022-08-31 14:10:00,,0831.7,4.99,0.00,30.0,27.9,00.0,38.8,31.7,18.5,0000.0,0024.08,0006.57,0004.88
2022-08-31 14:11:00,,0831.7,5.00,0.00,30.0,28.1,00.0,38.8,31.7,18.8,0000.0,0023.97,0006.64,0004.89
2022-08-31 14:12:00,,0831.7,5.01,0.00,30.0,28.3,00.0,38.7,31.7,18.4,0000.0,0024.04,0006.69,0004.89
2022-08-31 14:13:00,,0831.7,5.00,0.00,30.0,28.4,00.0,38.7,31.7,18.1,0000.0,0023.63,0006.69,0004.88
2022-08-31 14:14:00,,0831.7,5.00,0.00,30.0,28.6,00.0,38.7,31.7,18.2,0000.0,0024.15,0006.70,0004.88
2022-08-31 14:15:00,,0831.7,5.01,0.00,30.0,28.7,00.0,38.7,31.8,18.3,0000.0,0024.29,0006.69,0004.86
2022-08-31 14:16:00,,0831.8,5.00,0.00,30.0,28.7,00.0,38.7,31.8,18.6,0000.0,0024.45,0006.72,0004.85
2022-08-31 14:17:00,,0831.7,4.98,0.00,30.0,28.8,00.0,38.7,31.9,19.0,0000.0,0024.65,0006.71,0004.85
2022-08-31 14:18:00,,0831.7,5.00,0.00,30.0,28.9,00.0,38.8,31.9,18.6,0000.0,0024.71,0006.73,0004.87
2022-08-31 14:19:00,,0831.9,5.00,0.00,30.1,28.9,00.0,38.8,31.9,18.1,0000.0,0024.55,0006.75,0004.89
2022-08-31 14:20:00,,0832.0,5.01,0.00,30.1,29.0,00.0,38.8,31.9,18.2,0000.0,0022.74,0006.64,0004.91
2022-08-31 14:21:00,,0832.1,4.99,0.00,30.1,29.0,00.0,38.8,32.0,18.5,0000.0,0014.01,0005.91,0004.88
2022-08-31 14:22:00,,0832.1,5.01,0.00,30.1,29.1,00.0,38.8,32.0,19.2,0000.0,0013.04,0005.80,0004.89
2022-08-31 14:23:00,,0832.1,5.00,0.00,30.1,29.1,00.0,38.8,32.0,20.8,0000.0,0014.21,0005.84,0004.91
2022-08-31 14:24:00,,0832.1,4.99,0.00,30.2,29.2,00.0,38.9,32.0,21.1,0000.0,0014.00,0005.88,0004.92
2022-08-31 14:25:00,,0832.1,5.00,0.00,30.2,29.2,00.0,38.9,32.1,19.8,0000.0,0014.29,0005.93,0004.95
2022-08-31 14:26:00,,0832.0,5.01,0.00,30.2,29.2,00.0,38.9,32.1,20.9,0000.0,0014.41,0005.95,0004.97
2022-08-31 14:27:00,,0832.0,4.98,0.00,30.2,29.3,00.0,38.9,32.1,22.3,0000.0,0014.79,0006.02,0005.01
2022-08-31 14:28:00,,0832.0,5.00,0.00,30.3,29.3,00.0,38.9,32.1,23.4,0000.0,0015.13,0006.06,0005.04
2022-08-31 14:29:00,,0832.0,5.01,0.00,30.3,29.3,00.0,39.0,32.1,22.8,0000.0,0015.75,0006.08,0005.07
2022-08-31 14:30:00,,0832.0,5.00,0.00,30.3,29.3,00.0,39.0,32.2,22.7,0000.0,0016.34,0006.18,0005.12
2022-08-31 14:31:00,,0831.9,5.00,0.00,30.3,28.6,00.0,39.0,32.1,21.2,0000.0,0016.78,0006.29,0005.16
2022-08-31 14:32:00,,0831.9,5.01,0.00,30.3,27.2,00.0,38.9,32.0,20.2,0000.0,0016.79,0006.36,0005.20
2022-08-31 14:33:00,,0831.9,5.00,0.00,30.2,26.8,00.0,38.9,31.9,20.1,0000.0,0018.49,0006.52,0005.23
2022-08-31 14:34:00,,0831.7,5.02,0.00,30.2,27.1,00.0,38.8,31.8,19.1,0000.0,0018.30,0006.50,0005.24
2022-08-31 14:35:00,,0831.7,5.00,0.00,30.1,27.4,00.0,38.8,31.7,18.7,0000.0,0018.88,0006.48,0005.24
2022-08-31 14:36:00,,0831.7,4.99,0.00,30.0,27.7,00.0,38.8,31.7,19.1,0000.0,0018.86,0006.43,0005.23
2022-08-31 14:37:00,,0831.7,5.00,0.00,30.0,28.0,00.0,38.8,31.7,19.1,0000.0,0018.46,0006.39,0005.23
2022-08-31 14:38:00,,0831.7,5.00,0.00,30.0,28.2,00.0,38.8,31.7,19.4,0000.0,0018.65,0006.32,0005.21
2022-08-31 14:39:00,,0831.7,5.00,0.00,30.0,28.4,00.0,38.8,31.8,19.1,0000.0,0017.97,0006.31,0005.20
2022-08-31 14:40:00,,0831.7,5.01,0.00,30.0,28.5,00.0,38.7,31.8,18.5,0000.0,0017.83,0006.27,0005.17
2022-08-31 14:41:00,,0831.7,5.01,0.00,30.0,28.6,00.0,38.7,31.7,18.5,0000.0,0017.90,0006.21,0005.13
2022-08-31 14:42:00,,0831.7,4.99,0.00,30.0,28.7,00.0,38.7,31.8,18.8,0000.0,0017.55,0006.15,0005.09
2022-08-31 14:43:00,,0831.7,4.99,0.00,30.0,28.8,00.0,38.7,31.8,18.9,0000.0,0017.58,0006.13,0005.06
2022-08-31 14:44:00,,0831.7,5.01,0.00,30.0,28.9,00.0,38.8,31.9,19.4,0000.0,0015.50,0005.99,0005.03
2022-08-31 14:45:00,,0831.7,4.99,0.00,30.0,28.9,00.0,38.8,31.9,19.2,0000.0,0014.76,0005.96,0005.02
2022-08-31 14:46:00,,0831.7,5.00,0.00,30.1,29.0,00.0,38.8,31.9,18.7,0000.0,0014.01,0005.94,0005.01
2022-08-31 14:47:00,,0831.6,5.01,0.00,30.1,29.0,00.0,38.8,32.0,18.4,0000.0,0013.20,0005.94,0005.00
2022-08-31 14:48:00,,0831.7,4.99,0.00,30.1,29.1,00.0,38.8,32.0,18.9,0000.0,0013.41,0005.95,0004.99
2022-08-31 14:49:00,,0831.7,4.99,0.00,30.1,29.1,00.0,38.8,32.0,18.7,0000.0,0012.67,0005.95,0004.97
2022-08-31 14:50:00,,0831.7,5.00,0.00,30.2,29.2,00.0,38.8,32.0,18.9,0000.0,0012.47,0005.95,0004.97
2022-08-31 14:51:00,,0831.7,5.01,0.00,30.2,29.2,00.0,38.9,32.1,18.3,0000.0,0012.91,0005.95,0004.95
2022-08-31 14:52:00,,0831.7,4.99,0.00,30.2,29.2,00.0,38.9,32.1,18.2,0000.0,0012.45,0005.90,0004.94
2022-08-31 14:53:00,,0831.7,4.99,0.00,30.2,28.5,00.0,38.9,32.1,18.2,0000.0,0012.53,0005.87,0004.93
2022-08-31 14:54:00,,0831.7,5.01,0.00,30.2,27.3,00.0,38.9,32.0,18.3,0000.0,0012.23,0005.86,0004.93
2022-08-31 14:55:00,,0831.7,4.99,0.00,30.2,27.2,00.0,38.8,31.9,18.6,0000.0,0012.63,0005.85,0004.93
2022-08-31 14:56:00,,0831.6,5.00,0.00,30.1,27.4,00.0,38.8,31.8,18.4,0000.0,0012.34,0005.84,0004.92
2022-08-31 14:57:00,,0831.6,5.00,0.00,30.0,27.7,00.0,38.8,31.8,19.2,0000.0,0012.64,0005.84,0004.92
2022-08-31 14:58:00,,0831.6,4.99,0.00,30.0,28.0,00.0,38.8,31.8,20.2,0000.0,0013.40,0005.86,0004.94
2022-08-31 14:59:00,,0831.6,5.01,0.00,30.0,28.2,00.0,38.7,31.7,20.3,0000.0,0014.38,0005.87,0004.94
